M I D A S
Marine Information and Data Acquisition System
Tripno 316 of the Zeeleeuw from 2002-03-12 07:00:59 to 2002-03-12 18:10:07
Back to CruiseResearch ActivitiesStationsMapUnderway DataData graphs

EquipmentUnitsComments
TimeDGPSUTC
LatitudeDGPSDM.mWGS84
LongitudeDGPSDM.mWGS84
SpeedMeteo Stationm/sRelative wind speed
DirectionMeteo StationdegRelative wind direction
TemperatureMeteo Stationdeg CelciusAir temperature
PressureMeteo StationPaAtmospheric pressure
HumidityMeteo Station%Relative humidity
Missing or incorrect values are displayed as -999
Metereological data collected by the RV Zeeleeuw from 2002-03-12 07:00:59 to 2002-03-12 18:10:07
                                                                                    Next 1000 lines
Time Latitude Longitude Speed Direction Temperature Pressure Humidity
2002-03-12 07:01:05 51°13.687 2°55.904 2.6 205 8 101440 77
2002-03-12 07:01:10 51°13.687 2°55.904 2.8 204 8 101440 77
2002-03-12 07:01:15 51°13.687 2°55.902 2.5 199 8 101440 77
2002-03-12 07:01:20 51°13.688 2°55.9 2 199 8 101440 76
2002-03-12 07:01:25 51°13.688 2°55.897 1.4 186 8 101440 76
2002-03-12 07:01:30 51°13.689 2°55.893 1.3 181 8 101440 77
2002-03-12 07:01:36 51°13.69 2°55.887 1.2 173 8 101440 77
2002-03-12 07:01:41 51°13.691 2°55.88 1.5 172 8 101440 77
2002-03-12 07:01:46 51°13.692 2°55.873 1.2 158 8 101440 77
2002-03-12 07:01:51 51°13.694 2°55.866 0.9 161 8 101440 77
2002-03-12 07:01:56 51°13.695 2°55.858 1.2 158 8 101440 77
2002-03-12 07:02:01 51°13.696 2°55.851 1.4 159 8 101440 77
2002-03-12 07:02:06 51°13.696 2°55.844 1.3 175 8 101440 77
2002-03-12 07:02:11 51°13.697 2°55.837 1.3 171 8 101440 77
2002-03-12 07:02:16 51°13.698 2°55.83 1.1 161 8 101440 77
2002-03-12 07:02:20 51°13.698 2°55.824 1.2 153 8 101440 77
2002-03-12 07:02:25 51°13.699 2°55.816 1.4 145 8 101440 77
2002-03-12 07:02:31 51°13.699 2°55.807 1.2 147 8 101440 77
2002-03-12 07:02:36 51°13.7 2°55.799 1.4 131 8 101440 77
2002-03-12 07:02:41 51°13.7 2°55.79 1.8 129 8 101440 77
2002-03-12 07:02:46 51°13.7 2°55.782 2.2 113 8 101440 77
2002-03-12 07:02:51 51°13.699 2°55.773 1.7 117 8 101440 77
2002-03-12 07:02:56 51°13.699 2°55.765 1.7 120 8 101440 77
2002-03-12 07:03:01 51°13.698 2°55.757 1.6 112 8 101440 77
2002-03-12 07:03:06 51°13.698 2°55.749 2.2 122 8 101440 77
2002-03-12 07:03:10 51°13.697 2°55.744 1.7 100 8 101440 77
2002-03-12 07:03:15 51°13.696 2°55.737 1.4 89 8 101440 77
2002-03-12 07:03:20 51°13.696 2°55.73 2.2 106 8 101440 77
2002-03-12 07:03:25 51°13.695 2°55.724 1.7 104 8 101440 77
2002-03-12 07:03:29 51°13.695 2°55.719 1.6 120 8 101440 77
2002-03-12 07:03:35 51°13.695 2°55.715 1.5 129 8 101440 77
2002-03-12 07:03:40 51°13.695 2°55.713 1.7 160 8 101440 77
2002-03-12 07:03:45 51°13.696 2°55.714 1.9 159 8 101440 77
2002-03-12 07:03:50 51°13.698 2°55.715 2.1 147 8 101440 77
2002-03-12 07:03:55 51°13.701 2°55.717 2.1 173 8 101440 77
2002-03-12 07:04:00 51°13.706 2°55.719 1.9 185 8 101440 77
2002-03-12 07:04:05 51°13.711 2°55.719 1.5 185 8 101440 77
2002-03-12 07:04:10 51°13.718 2°55.719 1.7 182 8 101440 77
2002-03-12 07:04:15 51°13.727 2°55.716 2 191 8 101440 77
2002-03-12 07:04:20 51°13.736 2°55.712 1.7 191 8 101440 77
2002-03-12 07:04:25 51°13.746 2°55.705 1.9 196 8 101440 77
2002-03-12 07:04:29 51°13.754 2°55.7 2.1 198 8 101440 77
2002-03-12 07:04:35 51°13.767 2°55.69 2 205 8 101440 77
2002-03-12 07:04:40 51°13.778 2°55.682 2 202 8 101440 77
2002-03-12 07:04:45 51°13.789 2°55.674 2.1 208 8 101440 77
2002-03-12 07:04:50 51°13.801 2°55.665 2.3 200 8 101440 77
2002-03-12 07:04:55 51°13.812 2°55.657 1.8 210 8 101440 77
2002-03-12 07:05:00 51°13.824 2°55.648 2.5 214 8 101440 77
2002-03-12 07:05:05 51°13.837 2°55.641 3.2 223 8 101440 77
2002-03-12 07:05:10 51°13.849 2°55.632 2.4 211 8 101440 77
2002-03-12 07:05:15 51°13.862 2°55.625 2.9 230 8 101440 77
2002-03-12 07:05:19 51°13.872 2°55.618 3 227 8 101440 77
2002-03-12 07:05:25 51°13.887 2°55.608 3 211 8 101440 77
2002-03-12 07:05:30 51°13.9 2°55.599 3.2 213 8 101440 77
2002-03-12 07:05:35 51°13.913 2°55.591 2.9 206 8 101440 77
2002-03-12 07:05:40 51°13.926 2°55.583 3.4 228 8 101440 77
2002-03-12 07:05:45 51°13.939 2°55.574 2.9 213 8 101440 77
2002-03-12 07:05:50 51°13.952 2°55.566 3.1 203 8 101440 77
2002-03-12 07:05:55 51°13.965 2°55.558 2.8 213 8 101440 77
2002-03-12 07:06:00 51°13.978 2°55.55 2.9 220 8 101440 77
2002-03-12 07:06:05 51°13.99 2°55.542 2.5 215 8 101440 77
2002-03-12 07:06:10 51°14.002 2°55.534 2.1 209 8 101440 77
2002-03-12 07:06:15 51°14.013 2°55.527 1.8 217 8 101440 77
2002-03-12 07:06:19 51°14.021 2°55.521 2 219 8 101440 77
2002-03-12 07:06:25 51°14.033 2°55.514 1.7 220 8 101440 77
2002-03-12 07:06:30 51°14.043 2°55.508 1.6 208 8 101440 77
2002-03-12 07:06:35 51°14.052 2°55.501 1.7 198 8 101440 77
2002-03-12 07:06:40 51°14.06 2°55.494 1.3 195 8 101440 77
2002-03-12 07:06:45 51°14.069 2°55.487 0.9 203 8 101440 77
2002-03-12 07:06:50 51°14.076 2°55.481 0.9 182 8 101440 77
2002-03-12 07:06:55 51°14.084 2°55.474 0.7 165 8 101440 77
2002-03-12 07:06:59 51°14.09 2°55.469 0.8 153 8 101440 77
2002-03-12 07:07:05 51°14.099 2°55.462 0.9 186 8 101440 77
2002-03-12 07:07:10 51°14.106 2°55.456 0.7 191 8 101440 77
2002-03-12 07:07:15 51°14.113 2°55.45 0.4 188 8 101440 77
2002-03-12 07:07:20 51°14.12 2°55.444 0.4 176 8 101440 77
2002-03-12 07:07:25 51°14.127 2°55.438 0.6 163 8 101440 77
2002-03-12 07:07:30 51°14.134 2°55.431 0.6 164 8 101440 77
2002-03-12 07:07:35 51°14.141 2°55.424 0.5 153 8 101440 77
2002-03-12 07:07:40 51°14.148 2°55.417 0.6 152 8 101440 77
2002-03-12 07:07:45 51°14.155 2°55.41 0.7 143 8 101440 77
2002-03-12 07:07:50 51°14.163 2°55.402 0.9 151 8.1 101440 77
2002-03-12 07:07:55 51°14.171 2°55.393 0.6 181 8.1 101440 77
2002-03-12 07:08:00 51°14.179 2°55.384 0.6 207 8.1 101440 77
2002-03-12 07:08:05 51°14.188 2°55.373 1.3 222 8.1 101440 77
2002-03-12 07:08:10 51°14.197 2°55.362 1.5 226 8.1 101440 77
2002-03-12 07:08:15 51°14.207 2°55.35 1.6 225 8.1 101440 77
2002-03-12 07:08:20 51°14.216 2°55.338 1.8 235 8.1 101440 77
2002-03-12 07:08:25 51°14.226 2°55.325 2.1 235 8.1 101440 77
2002-03-12 07:08:30 51°14.235 2°55.311 1.8 230 8.1 101440 77
2002-03-12 07:08:35 51°14.244 2°55.297 2.3 245 8.1 101440 77
2002-03-12 07:08:40 51°14.253 2°55.282 2.2 239 8.1 101440 77
2002-03-12 07:08:45 51°14.263 2°55.267 2.1 233 8.1 101440 77
2002-03-12 07:08:50 51°14.271 2°55.252 1.8 239 8.1 101440 77
2002-03-12 07:08:55 51°14.278 2°55.238 1.5 239 8.1 101440 77
2002-03-12 07:09:00 51°14.286 2°55.224 1.4 257 8.1 101440 77
2002-03-12 07:09:05 51°14.292 2°55.211 1.1 265 8.1 101440 77
2002-03-12 07:09:09 51°14.297 2°55.201 1.2 265 8.1 101440 77
2002-03-12 07:09:15 51°14.303 2°55.186 0.9 273 8.1 101440 77
2002-03-12 07:09:20 51°14.309 2°55.173 0.8 286 8.1 101440 77
2002-03-12 07:09:25 51°14.313 2°55.161 0.7 302 8.1 101440 77
2002-03-12 07:09:29 51°14.317 2°55.152 0.7 304 8.1 101440 77
2002-03-12 07:09:35 51°14.322 2°55.139 0.5 339 8.1 101440 77
2002-03-12 07:09:40 51°14.327 2°55.128 0.4 336 8.1 101440 77
2002-03-12 07:09:45 51°14.331 2°55.116 0.4 322 8.1 101440 77
2002-03-12 07:09:50 51°14.335 2°55.104 0.4 316 8.1 101440 77
2002-03-12 07:09:55 51°14.34 2°55.092 0.9 281 8.1 101440 77
2002-03-12 07:10:00 51°14.345 2°55.078 1.3 273 8.2 101440 77
2002-03-12 07:10:05 51°14.35 2°55.063 1.7 256 8.2 101440 77
2002-03-12 07:10:10 51°14.356 2°55.047 1.9 258 8.2 101440 77
2002-03-12 07:10:15 51°14.362 2°55.03 1.9 251 8.2 101440 77
2002-03-12 07:10:19 51°14.368 2°55.016 2.3 246 8.2 101440 77
2002-03-12 07:10:25 51°14.377 2°54.994 2.4 243 8.2 101440 77
2002-03-12 07:10:30 51°14.385 2°54.975 2.5 236 8.2 101440 77
2002-03-12 07:10:35 51°14.394 2°54.956 3.1 235 8.2 101440 77
2002-03-12 07:10:40 51°14.404 2°54.937 3.2 239 8.2 101440 77
2002-03-12 07:10:45 51°14.414 2°54.918 2.7 229 8.2 101440 77
2002-03-12 07:10:50 51°14.425 2°54.9 2.2 225 8.2 101440 77
2002-03-12 07:10:55 51°14.436 2°54.883 2.7 228 8.2 101440 77
2002-03-12 07:10:59 51°14.446 2°54.869 2.7 223 8.2 101440 77
2002-03-12 07:11:05 51°14.461 2°54.849 3.3 224 8.2 101440 77
2002-03-12 07:11:10 51°14.473 2°54.833 3.3 221 8.2 101440 77
2002-03-12 07:11:15 51°14.486 2°54.816 3.4 217 8.2 101440 77
2002-03-12 07:11:20 51°14.499 2°54.8 3.6 219 8.2 101440 77
2002-03-12 07:11:25 51°14.511 2°54.783 3.7 221 8.2 101440 77
2002-03-12 07:11:30 51°14.524 2°54.766 3.6 219 8.2 101440 77
2002-03-12 07:11:35 51°14.536 2°54.749 3.6 220 8.2 101440 77
2002-03-12 07:11:40 51°14.549 2°54.731 3.9 223 8.2 101440 77
2002-03-12 07:11:45 51°14.561 2°54.713 4.6 221 8.2 101440 77
2002-03-12 07:11:50 51°14.574 2°54.696 4.8 218 8.2 101440 77
2002-03-12 07:11:55 51°14.586 2°54.679 4.4 218 8.2 101440 77
2002-03-12 07:12:00 51°14.599 2°54.662 4.3 217 8.2 101440 77
2002-03-12 07:12:05 51°14.612 2°54.644 4.4 220 8.2 101440 77
2002-03-12 07:12:10 51°14.625 2°54.627 4.3 215 8.2 101430 77
2002-03-12 07:12:15 51°14.637 2°54.61 4.7 213 8.2 101430 77
2002-03-12 07:12:19 51°14.647 2°54.596 4.5 219 8.2 101430 77
2002-03-12 07:12:25 51°14.663 2°54.576 4.5 218 8.2 101430 77
2002-03-12 07:12:30 51°14.676 2°54.558 4.5 216 8.2 101440 77
2002-03-12 07:12:35 51°14.688 2°54.541 4.7 214 8.2 101440 77
2002-03-12 07:12:40 51°14.701 2°54.524 4.4 211 8.2 101440 77
2002-03-12 07:12:45 51°14.714 2°54.507 4.8 212 8.2 101440 77
2002-03-12 07:12:50 51°14.727 2°54.49 4.7 209 8.2 101440 77
2002-03-12 07:12:55 51°14.74 2°54.473 3.9 215 8.2 101440 77
2002-03-12 07:12:59 51°14.75 2°54.459 4.2 214 8.2 101440 77
2002-03-12 07:13:05 51°14.765 2°54.439 4.5 210 8.2 101440 77
2002-03-12 07:13:10 51°14.778 2°54.421 4.2 207 8.2 101430 77
2002-03-12 07:13:15 51°14.79 2°54.404 4.7 208 8.2 101430 77
2002-03-12 07:13:19 51°14.801 2°54.391 4.2 206 8.2 101440 77
2002-03-12 07:13:25 51°14.816 2°54.37 3.9 207 8.2 101440 77
2002-03-12 07:13:30 51°14.829 2°54.353 3.7 195 8.2 101440 77
2002-03-12 07:13:35 51°14.842 2°54.336 3.7 205 8.2 101440 77
2002-03-12 07:13:40 51°14.854 2°54.319 3.6 207 8.1 101440 77
2002-03-12 07:13:45 51°14.867 2°54.303 3.4 206 8.1 101440 77
2002-03-12 07:13:50 51°14.88 2°54.286 3.8 200 8.1 101430 77
2002-03-12 07:13:55 51°14.893 2°54.27 3.4 205 8.1 101430 77
2002-03-12 07:14:00 51°14.906 2°54.253 3.3 201 8.1 101440 76
2002-03-12 07:14:05 51°14.919 2°54.237 3.4 205 8.1 101440 76
2002-03-12 07:14:10 51°14.932 2°54.22 3.4 198 8.1 101440 76
2002-03-12 07:14:15 51°14.945 2°54.205 3.2 204 8.1 101440 76
2002-03-12 07:14:20 51°14.958 2°54.188 3.2 196 8 101430 77
2002-03-12 07:14:25 51°14.971 2°54.173 2.9 207 8 101430 77
2002-03-12 07:14:30 51°14.984 2°54.156 3.2 193 8 101440 77
2002-03-12 07:14:35 51°14.998 2°54.14 2.6 205 8 101440 77
2002-03-12 07:14:40 51°15.011 2°54.122 3 192 8 101430 77
2002-03-12 07:14:45 51°15.025 2°54.107 2.8 210 8 101430 77
2002-03-12 07:14:50 51°15.038 2°54.089 3.1 192 8 101440 77
2002-03-12 07:14:55 51°15.053 2°54.073 2.8 214 8 101440 77
2002-03-12 07:15:00 51°15.066 2°54.055 3.3 193 8 101430 77
2002-03-12 07:15:05 51°15.081 2°54.039 2.8 211 8 101430 77
2002-03-12 07:15:10 51°15.094 2°54.021 2.8 194 8 101440 77
2002-03-12 07:15:15 51°15.109 2°54.005 2.6 213 8 101440 77
2002-03-12 07:15:20 51°15.123 2°53.986 3 196 8 101430 77
2002-03-12 07:15:25 51°15.138 2°53.97 2.5 215 8 101430 77
2002-03-12 07:15:30 51°15.151 2°53.951 3 196 8 101430 77
2002-03-12 07:15:35 51°15.166 2°53.935 2.6 212 8 101430 77
2002-03-12 07:15:40 51°15.18 2°53.915 2.6 199 8 101430 77
2002-03-12 07:15:45 51°15.195 2°53.899 2.5 214 8 101430 77
2002-03-12 07:15:50 51°15.209 2°53.879 2.9 198 8 101430 77
2002-03-12 07:15:55 51°15.224 2°53.863 2.5 214 8 101430 77
2002-03-12 07:16:00 51°15.237 2°53.843 3 203 8 101440 77
2002-03-12 07:16:05 51°15.253 2°53.827 2.9 217 8 101440 77
2002-03-12 07:16:10 51°15.267 2°53.807 3.1 203 8 101430 78
2002-03-12 07:16:15 51°15.282 2°53.792 3 211 8 101430 78
2002-03-12 07:16:20 51°15.297 2°53.773 3.7 206 8 101440 78
2002-03-12 07:16:25 51°15.312 2°53.757 2.9 211 8 101440 78
2002-03-12 07:16:30 51°15.327 2°53.739 3.2 201 8 101440 78
2002-03-12 07:16:35 51°15.343 2°53.724 3.3 217 8 101440 78
2002-03-12 07:16:40 51°15.358 2°53.706 3.2 202 8 101430 78
2002-03-12 07:16:45 51°15.374 2°53.692 3.1 211 8 101430 78
2002-03-12 07:16:50 51°15.389 2°53.673 3.7 198 8 101440 78
2002-03-12 07:16:55 51°15.406 2°53.66 3.2 210 8 101440 78
2002-03-12 07:17:00 51°15.421 2°53.642 3.3 198 8 101440 78
2002-03-12 07:17:05 51°15.437 2°53.627 3.1 215 8 101440 78
2002-03-12 07:17:10 51°15.452 2°53.61 3.2 201 8 101430 78
2002-03-12 07:17:15 51°15.468 2°53.596 3.4 213 8 101430 78
2002-03-12 07:17:19 51°15.481 2°53.582 3.4 201 8 101440 78
2002-03-12 07:17:25 51°15.5 2°53.564 3.3 211 8 101440 78
2002-03-12 07:17:30 51°15.516 2°53.546 2.8 202 8 101430 78
2002-03-12 07:17:35 51°15.532 2°53.532 2.9 207 8 101430 78
2002-03-12 07:17:40 51°15.547 2°53.514 2.7 202 8 101430 78
2002-03-12 07:17:45 51°15.563 2°53.499 3.1 209 8 101430 78
2002-03-12 07:17:50 51°15.579 2°53.482 2.9 211 8 101440 78
2002-03-12 07:17:55 51°15.595 2°53.467 2.8 201 8 101440 78
2002-03-12 07:18:00 51°15.61 2°53.449 2.3 205 8 101430 78
2002-03-12 07:18:05 51°15.626 2°53.434 2.7 204 8 101430 78
2002-03-12 07:18:10 51°15.641 2°53.415 2.4 205 8 101440 78
2002-03-12 07:18:15 51°15.657 2°53.401 2.8 207 8 101440 78
2002-03-12 07:18:20 51°15.672 2°53.383 2.7 205 8 101440 78
2002-03-12 07:18:25 51°15.688 2°53.367 2.9 203 8 101440 78
2002-03-12 07:18:30 51°15.703 2°53.349 2.4 210 8 101440 78
2002-03-12 07:18:35 51°15.719 2°53.334 2.4 192 8 101440 78
2002-03-12 07:18:40 51°15.734 2°53.316 2.2 204 8 101440 78
2002-03-12 07:18:45 51°15.75 2°53.3 2.3 189 8 101440 78
2002-03-12 07:18:50 51°15.765 2°53.283 1.9 208 8 101440 78
2002-03-12 07:18:55 51°15.781 2°53.267 2.2 187 8 101440 78
2002-03-12 07:19:00 51°15.796 2°53.25 1.9 210 8 101440 78
2002-03-12 07:19:05 51°15.812 2°53.234 2.4 192 8 101440 78
2002-03-12 07:19:10 51°15.828 2°53.217 2.3 214 8 101440 78
2002-03-12 07:19:15 51°15.843 2°53.201 2.3 187 8 101440 78
2002-03-12 07:19:20 51°15.859 2°53.185 1.9 206 8 101440 78
2002-03-12 07:19:25 51°15.874 2°53.168 2.8 190 8 101440 78
2002-03-12 07:19:30 51°15.89 2°53.153 2.3 218 8 101440 78
2002-03-12 07:19:35 51°15.906 2°53.135 2.9 195 8 101440 78
2002-03-12 07:19:40 51°15.922 2°53.12 2.1 217 8 101440 78
2002-03-12 07:19:45 51°15.937 2°53.103 2.4 182 8 101440 78
2002-03-12 07:19:50 51°15.953 2°53.088 2.2 223 8 101440 78
2002-03-12 07:19:55 51°15.968 2°53.07 2.6 189 8 101440 78
2002-03-12 07:20:00 51°15.984 2°53.056 2.5 217 8 101440 78
2002-03-12 07:20:05 51°15.999 2°53.038 2.4 193 8 101440 78
2002-03-12 07:20:10 51°16.016 2°53.024 2.9 220 8.1 101440 78
2002-03-12 07:20:15 51°16.031 2°53.007 2.9 197 8.1 101440 78
2002-03-12 07:20:20 51°16.048 2°52.994 2.6 205 8 101440 78
2002-03-12 07:20:25 51°16.063 2°52.978 3.2 195 8 101440 78
2002-03-12 07:20:30 51°16.08 2°52.966 3.1 199 8.1 101440 79
2002-03-12 07:20:35 51°16.096 2°52.951 3.4 198 8.1 101440 79
2002-03-12 07:20:40 51°16.113 2°52.941 3.9 207 8.1 101440 79
2002-03-12 07:20:45 51°16.13 2°52.927 3.6 194 8.1 101440 79
2002-03-12 07:20:50 51°16.147 2°52.917 4 196 8.1 101440 79
2002-03-12 07:20:55 51°16.164 2°52.905 3.6 204 8.1 101440 79
2002-03-12 07:21:00 51°16.181 2°52.896 3.6 194 8.1 101440 79
2002-03-12 07:21:05 51°16.198 2°52.884 3.8 207 8.1 101440 79
2002-03-12 07:21:10 51°16.215 2°52.874 4.3 201 8.1 101440 79
2002-03-12 07:21:15 51°16.232 2°52.863 3.6 203 8.1 101440 79
2002-03-12 07:21:20 51°16.249 2°52.853 4.4 195 8.1 101440 79
2002-03-12 07:21:25 51°16.266 2°52.842 3.6 211 8.1 101440 79
2002-03-12 07:21:30 51°16.283 2°52.831 3.7 196 8.1 101440 79
2002-03-12 07:21:35 51°16.3 2°52.82 3.5 210 8.1 101440 79
2002-03-12 07:21:40 51°16.317 2°52.809 4.2 202 8.1 101440 79
2002-03-12 07:21:45 51°16.335 2°52.799 3.7 209 8.1 101440 79
2002-03-12 07:21:50 51°16.351 2°52.788 4.1 196 8.1 101440 79
2002-03-12 07:21:55 51°16.369 2°52.778 3 210 8.1 101440 79
2002-03-12 07:22:00 51°16.385 2°52.766 3.9 204 8.2 101440 79
2002-03-12 07:22:05 51°16.403 2°52.758 3.3 207 8.2 101440 79
2002-03-12 07:22:10 51°16.419 2°52.745 3.8 194 8.2 101440 79
2002-03-12 07:22:15 51°16.437 2°52.737 3.3 222 8.2 101440 79
2002-03-12 07:22:20 51°16.454 2°52.725 4.1 197 8.2 101440 79
2002-03-12 07:22:25 51°16.471 2°52.717 3.7 217 8.2 101440 79
2002-03-12 07:22:30 51°16.488 2°52.705 3.3 196 8.2 101440 79
2002-03-12 07:22:35 51°16.505 2°52.698 4.1 207 8.2 101440 79
2002-03-12 07:22:40 51°16.522 2°52.686 3.8 214 8.2 101440 79
2002-03-12 07:22:45 51°16.539 2°52.679 4.4 212 8.2 101440 79
2002-03-12 07:22:50 51°16.556 2°52.668 4.3 207 8.2 101440 79
2002-03-12 07:22:55 51°16.574 2°52.662 4.1 216 8.2 101440 79
2002-03-12 07:23:00 51°16.591 2°52.651 4.1 203 8.2 101440 79
2002-03-12 07:23:05 51°16.608 2°52.644 4 215 8.2 101440 79
2002-03-12 07:23:10 51°16.625 2°52.634 3.8 204 8.2 101440 79
2002-03-12 07:23:15 51°16.643 2°52.627 4.6 213 8.2 101440 79
2002-03-12 07:23:20 51°16.66 2°52.617 3.8 211 8.2 101450 79
2002-03-12 07:23:25 51°16.677 2°52.61 4.2 206 8.2 101450 79
2002-03-12 07:23:30 51°16.694 2°52.6 4.1 214 8.2 101450 79
2002-03-12 07:23:35 51°16.711 2°52.592 4.6 202 8.2 101450 79
2002-03-12 07:23:40 51°16.728 2°52.583 3.9 215 8.2 101450 79
2002-03-12 07:23:45 51°16.744 2°52.575 4.5 206 8.2 101450 79
2002-03-12 07:23:50 51°16.761 2°52.566 3.5 214 8.2 101450 79
2002-03-12 07:23:55 51°16.777 2°52.557 4.4 206 8.2 101450 79
2002-03-12 07:24:00 51°16.794 2°52.549 4.3 222 8.2 101450 79
2002-03-12 07:24:05 51°16.811 2°52.54 4.5 204 8.2 101450 79
2002-03-12 07:24:10 51°16.828 2°52.533 4.6 217 8.2 101450 79
2002-03-12 07:24:15 51°16.845 2°52.525 4.8 212 8.2 101450 79
2002-03-12 07:24:20 51°16.862 2°52.518 4.5 217 8.2 101450 79
2002-03-12 07:24:25 51°16.879 2°52.51 4.6 206 8.2 101450 79
2002-03-12 07:24:30 51°16.896 2°52.503 4.4 219 8.2 101450 79
2002-03-12 07:24:35 51°16.913 2°52.495 5.3 207 8.2 101450 79
2002-03-12 07:24:40 51°16.931 2°52.489 4.8 217 8.2 101450 79
2002-03-12 07:24:45 51°16.947 2°52.481 4.3 201 8.2 101450 79
2002-03-12 07:24:49 51°16.961 2°52.476 4.2 217 8.2 101450 79
2002-03-12 07:24:55 51°16.981 2°52.466 4.5 201 8.2 101450 79
2002-03-12 07:25:00 51°16.998 2°52.461 4.4 210 8.2 101450 79
2002-03-12 07:25:05 51°17.015 2°52.453 4.6 200 8.2 101450 79
2002-03-12 07:25:10 51°17.032 2°52.447 5 219 8.2 101450 79
2002-03-12 07:25:15 51°17.049 2°52.439 5.6 209 8.2 101450 79
2002-03-12 07:25:20 51°17.066 2°52.433 4.6 218 8.2 101450 79
2002-03-12 07:25:25 51°17.083 2°52.424 5.2 200 8.2 101450 79
2002-03-12 07:25:30 51°17.1 2°52.418 4.5 217 8.2 101450 79
2002-03-12 07:25:35 51°17.117 2°52.41 5.3 201 8.2 101450 79
2002-03-12 07:25:40 51°17.135 2°52.404 4.8 219 8.2 101450 79
2002-03-12 07:25:45 51°17.152 2°52.396 5.4 205 8.2 101450 79
2002-03-12 07:25:50 51°17.169 2°52.391 4.7 221 8.2 101450 79
2002-03-12 07:25:55 51°17.186 2°52.384 5.6 211 8.2 101450 79
2002-03-12 07:26:00 51°17.204 2°52.38 5.1 226 8.2 101450 79
2002-03-12 07:26:05 51°17.221 2°52.372 5.9 211 8.2 101450 79
2002-03-12 07:26:10 51°17.238 2°52.368 5.7 226 8.2 101450 79
2002-03-12 07:26:15 51°17.255 2°52.36 6.2 214 8.2 101450 79
2002-03-12 07:26:20 51°17.273 2°52.356 6.2 222 8.3 101450 79
2002-03-12 07:26:25 51°17.29 2°52.348 5.7 209 8.3 101450 79
2002-03-12 07:26:30 51°17.308 2°52.344 5.6 221 8.3 101450 79
2002-03-12 07:26:35 51°17.325 2°52.336 6.2 211 8.3 101450 79
2002-03-12 07:26:40 51°17.342 2°52.332 6.5 225 8.2 101450 79
2002-03-12 07:26:45 51°17.359 2°52.324 6.8 215 8.2 101450 79
2002-03-12 07:26:50 51°17.377 2°52.32 6 223 8.3 101450 79
2002-03-12 07:26:55 51°17.394 2°52.311 6.3 213 8.3 101450 79
2002-03-12 07:27:00 51°17.411 2°52.307 5.9 220 8.3 101450 79
2002-03-12 07:27:05 51°17.428 2°52.299 6.1 216 8.3 101450 79
2002-03-12 07:27:10 51°17.445 2°52.294 5.7 215 8.3 101450 79
2002-03-12 07:27:15 51°17.462 2°52.286 5.9 213 8.3 101450 79
2002-03-12 07:27:20 51°17.48 2°52.281 6 219 8.3 101450 79
2002-03-12 07:27:25 51°17.497 2°52.273 6.1 215 8.3 101450 79
2002-03-12 07:27:30 51°17.514 2°52.268 5.9 215 8.3 101450 79
2002-03-12 07:27:35 51°17.531 2°52.26 5.8 217 8.3 101450 79
2002-03-12 07:27:40 51°17.549 2°52.255 5.9 215 8.3 101450 79
2002-03-12 07:27:45 51°17.566 2°52.248 5.5 214 8.3 101450 79
2002-03-12 07:27:50 51°17.583 2°52.244 6.5 212 8.3 101450 79
2002-03-12 07:27:55 51°17.6 2°52.238 6.2 217 8.3 101450 79
2002-03-12 07:28:00 51°17.617 2°52.235 6.2 213 8.3 101450 79
2002-03-12 07:28:05 51°17.635 2°52.229 6.5 217 8.3 101450 79
2002-03-12 07:28:10 51°17.652 2°52.227 6.8 211 8.3 101450 79
2002-03-12 07:28:15 51°17.669 2°52.221 6.5 216 8.3 101450 79
2002-03-12 07:28:20 51°17.687 2°52.219 6.1 207 8.3 101450 79
2002-03-12 07:28:25 51°17.704 2°52.214 6.2 215 8.3 101450 79
2002-03-12 07:28:30 51°17.721 2°52.211 6.9 209 8.4 101450 79
2002-03-12 07:28:35 51°17.739 2°52.208 6 218 8.4 101450 79
2002-03-12 07:28:40 51°17.756 2°52.206 6.8 207 8.4 101450 79
2002-03-12 07:28:45 51°17.773 2°52.203 6.2 216 8.4 101450 79
2002-03-12 07:28:50 51°17.79 2°52.202 7 206 8.4 101450 79
2002-03-12 07:28:55 51°17.808 2°52.201 6.7 213 8.4 101450 79
2002-03-12 07:29:00 51°17.825 2°52.2 6.8 202 8.4 101440 79
2002-03-12 07:29:05 51°17.842 2°52.2 6.5 216 8.4 101440 79
2002-03-12 07:29:10 51°17.86 2°52.2 7.2 201 8.4 101450 79
2002-03-12 07:29:15 51°17.877 2°52.202 6.4 212 8.4 101450 79
2002-03-12 07:29:20 51°17.894 2°52.203 6.9 203 8.4 101450 79
2002-03-12 07:29:25 51°17.911 2°52.206 6.4 209 8.4 101450 79
2002-03-12 07:29:30 51°17.928 2°52.21 6.6 201 8.4 101450 79
2002-03-12 07:29:35 51°17.945 2°52.214 6.5 209 8.4 101450 79
2002-03-12 07:29:39 51°17.959 2°52.217 7.3 200 8.4 101450 78
2002-03-12 07:29:45 51°17.979 2°52.225 7.1 205 8.4 101450 78
2002-03-12 07:29:50 51°17.996 2°52.23 7.2 200 8.4 101440 78
2002-03-12 07:29:55 51°18.012 2°52.238 7.1 208 8.4 101440 78
2002-03-12 07:30:00 51°18.029 2°52.244 7.2 195 8.4 101440 78
2002-03-12 07:30:05 51°18.045 2°52.253 6.5 207 8.4 101440 78
2002-03-12 07:30:10 51°18.062 2°52.259 7.6 197 8.4 101450 78
2002-03-12 07:30:15 51°18.078 2°52.268 6.7 203 8.4 101450 78
2002-03-12 07:30:20 51°18.095 2°52.274 6.6 193 8.4 101440 78
2002-03-12 07:30:25 51°18.112 2°52.283 6.3 201 8.4 101440 78
2002-03-12 07:30:30 51°18.129 2°52.288 7 198 8.4 101440 78
2002-03-12 07:30:35 51°18.146 2°52.292 6.6 199 8.4 101440 78
2002-03-12 07:30:40 51°18.162 2°52.297 6.6 194 8.4 101440 78
2002-03-12 07:30:45 51°18.179 2°52.302 6.1 197 8.4 101440 78
2002-03-12 07:30:50 51°18.196 2°52.309 6.9 203 8.4 101440 78
2002-03-12 07:30:55 51°18.212 2°52.319 6.9 201 8.4 101440 78
2002-03-12 07:31:00 51°18.227 2°52.332 7.6 202 8.4 101440 78
2002-03-12 07:31:05 51°18.24 2°52.348 7.7 205 8.4 101440 78
2002-03-12 07:31:10 51°18.252 2°52.366 8.8 203 8.4 101440 78
2002-03-12 07:31:15 51°18.263 2°52.387 8.5 208 8.4 101440 78
2002-03-12 07:31:19 51°18.27 2°52.405 8.9 209 8.4 101440 78
2002-03-12 07:31:25 51°18.279 2°52.433 10.2 207 8.4 101440 78
2002-03-12 07:31:30 51°18.286 2°52.458 9 208 8.4 101440 79
2002-03-12 07:31:35 51°18.293 2°52.482 8.8 209 8.4 101440 79
2002-03-12 07:31:40 51°18.301 2°52.506 9.7 209 8.4 101430 79
2002-03-12 07:31:45 51°18.309 2°52.529 9.7 207 8.4 101430 79
2002-03-12 07:31:50 51°18.318 2°52.552 9 207 8.5 101440 78
2002-03-12 07:31:55 51°18.328 2°52.574 9.3 201 8.5 101440 78
2002-03-12 07:32:00 51°18.338 2°52.596 8.3 210 8.4 101430 78
2002-03-12 07:32:05 51°18.348 2°52.618 8.7 203 8.4 101430 78
2002-03-12 07:32:10 51°18.357 2°52.64 9.2 208 8.5 101440 78
2002-03-12 07:32:15 51°18.368 2°52.661 10.1 202 8.5 101440 78
2002-03-12 07:32:20 51°18.378 2°52.684 8.5 211 8.4 101430 78
2002-03-12 07:32:25 51°18.388 2°52.706 9.8 204 8.4 101430 78
2002-03-12 07:32:30 51°18.398 2°52.728 9.5 210 8.4 101440 78
2002-03-12 07:32:35 51°18.409 2°52.75 9.4 201 8.4 101440 78
2002-03-12 07:32:39 51°18.416 2°52.768 8.5 212 8.5 101430 78
2002-03-12 07:32:45 51°18.429 2°52.794 9.2 202 8.5 101430 78
2002-03-12 07:32:50 51°18.439 2°52.816 8.9 210 8.5 101430 78
2002-03-12 07:32:55 51°18.449 2°52.838 9.4 204 8.5 101430 78
2002-03-12 07:32:59 51°18.456 2°52.856 9.2 211 8.5 101440 78
2002-03-12 07:33:05 51°18.469 2°52.882 9.2 208 8.5 101440 78
2002-03-12 07:33:10 51°18.478 2°52.905 9 208 8.4 101430 78
2002-03-12 07:33:15 51°18.488 2°52.927 8.7 203 8.4 101430 78
2002-03-12 07:33:20 51°18.498 2°52.949 8.4 210 8.5 101430 78
2002-03-12 07:33:25 51°18.507 2°52.972 8.8 205 8.5 101430 78
2002-03-12 07:33:30 51°18.517 2°52.995 9 207 8.5 101440 78
2002-03-12 07:33:35 51°18.526 2°53.018 9.5 207 8.5 101440 78
2002-03-12 07:33:40 51°18.535 2°53.041 9.5 208 8.5 101430 78
2002-03-12 07:33:45 51°18.544 2°53.064 8.9 207 8.5 101430 78
2002-03-12 07:33:50 51°18.553 2°53.088 9.1 207 8.5 101430 78
2002-03-12 07:33:55 51°18.56 2°53.112 9.5 210 8.5 101430 78
2002-03-12 07:34:00 51°18.568 2°53.136 10.2 211 8.5 101430 78
2002-03-12 07:34:05 51°18.575 2°53.162 9.5 209 8.5 101430 78
2002-03-12 07:34:10 51°18.583 2°53.186 9.4 210 8.5 101430 78
2002-03-12 07:34:15 51°18.588 2°53.212 9.5 212 8.5 101430 78
2002-03-12 07:34:20 51°18.596 2°53.236 9.9 207 8.5 101440 78
2002-03-12 07:34:25 51°18.602 2°53.262 9.5 212 8.5 101440 78
2002-03-12 07:34:30 51°18.61 2°53.287 10.2 208 8.5 101430 78
2002-03-12 07:34:35 51°18.615 2°53.313 9.8 215 8.5 101430 78
2002-03-12 07:34:40 51°18.624 2°53.337 10.2 209 8.5 101430 78
2002-03-12 07:34:45 51°18.629 2°53.363 9.8 214 8.5 101430 78
2002-03-12 07:34:50 51°18.637 2°53.387 10.4 204 8.5 101430 78
2002-03-12 07:34:55 51°18.643 2°53.413 9.1 211 8.5 101430 78
2002-03-12 07:35:00 51°18.651 2°53.437 9.8 210 8.5 101430 78
2002-03-12 07:35:05 51°18.657 2°53.462 9.9 212 8.5 101430 78
2002-03-12 07:35:10 51°18.666 2°53.486 10.2 205 8.5 101430 77
2002-03-12 07:35:15 51°18.672 2°53.511 9.8 213 8.5 101430 77
2002-03-12 07:35:19 51°18.679 2°53.53 11 208 8.5 101430 77
2002-03-12 07:35:25 51°18.687 2°53.56 9.2 212 8.5 101430 77
2002-03-12 07:35:30 51°18.696 2°53.584 10.7 206 8.5 101430 77
2002-03-12 07:35:35 51°18.702 2°53.61 9.2 215 8.5 101430 77
2002-03-12 07:35:40 51°18.711 2°53.633 10.1 206 8.5 101440 77
2002-03-12 07:35:45 51°18.717 2°53.658 10.5 215 8.5 101440 77
2002-03-12 07:35:50 51°18.726 2°53.682 10.4 205 8.5 101430 77
2002-03-12 07:35:55 51°18.733 2°53.707 9.9 213 8.5 101430 77
2002-03-12 07:36:00 51°18.741 2°53.731 9.6 207 8.5 101440 77
2002-03-12 07:36:05 51°18.748 2°53.756 10 215 8.5 101440 77
2002-03-12 07:36:10 51°18.756 2°53.78 9.9 206 8.5 101440 77
2002-03-12 07:36:15 51°18.763 2°53.805 9.6 217 8.5 101440 77
2002-03-12 07:36:20 51°18.771 2°53.829 9.9 206 8.5 101430 77
2002-03-12 07:36:25 51°18.778 2°53.854 10.1 215 8.5 101430 77
2002-03-12 07:36:30 51°18.786 2°53.878 9.8 206 8.5 101440 77
2002-03-12 07:36:35 51°18.793 2°53.903 10.1 215 8.5 101440 77
2002-03-12 07:36:40 51°18.801 2°53.928 9.4 209 8.5 101440 77
2002-03-12 07:36:45 51°18.808 2°53.952 9.5 216 8.5 101440 77
2002-03-12 07:36:50 51°18.816 2°53.977 9.9 209 8.5 101440 77
2002-03-12 07:36:55 51°18.823 2°54.002 9.8 215 8.5 101440 77
2002-03-12 07:37:00 51°18.831 2°54.026 9.6 211 8.5 101440 77
2002-03-12 07:37:05 51°18.838 2°54.051 9.5 213 8.5 101440 77
2002-03-12 07:37:10 51°18.846 2°54.075 9.8 207 8.5 101440 77
2002-03-12 07:37:15 51°18.852 2°54.1 9.6 215 8.5 101440 77
2002-03-12 07:37:20 51°18.86 2°54.124 9.7 209 8.5 101440 77
2002-03-12 07:37:25 51°18.867 2°54.149 9.5 217 8.5 101440 77
2002-03-12 07:37:30 51°18.875 2°54.173 10 207 8.5 101440 78
2002-03-12 07:37:35 51°18.882 2°54.198 9.1 219 8.5 101440 78
2002-03-12 07:37:40 51°18.89 2°54.222 9.3 209 8.6 101440 78
2002-03-12 07:37:45 51°18.897 2°54.246 9.6 215 8.6 101440 78
2002-03-12 07:37:50 51°18.905 2°54.271 10.4 213 8.6 101440 78
2002-03-12 07:37:55 51°18.913 2°54.295 10.1 218 8.6 101440 78
2002-03-12 07:38:00 51°18.92 2°54.32 10.1 212 8.6 101440 77
2002-03-12 07:38:05 51°18.928 2°54.344 9.8 214 8.6 101440 77
2002-03-12 07:38:10 51°18.935 2°54.369 9.4 208 8.6 101440 77
2002-03-12 07:38:15 51°18.943 2°54.393 9.2 214 8.6 101440 77
2002-03-12 07:38:20 51°18.951 2°54.417 9.7 209 8.6 101440 77
2002-03-12 07:38:25 51°18.959 2°54.441 9.1 212 8.6 101440 77
2002-03-12 07:38:30 51°18.966 2°54.466 9.7 214 8.6 101440 77
2002-03-12 07:38:35 51°18.974 2°54.49 9.3 215 8.6 101440 77
2002-03-12 07:38:39 51°18.98 2°54.51 9.6 213 8.5 101440 77
2002-03-12 07:38:45 51°18.989 2°54.54 9.8 211 8.5 101440 77
2002-03-12 07:38:50 51°18.996 2°54.565 9.5 214 8.6 101440 77
2002-03-12 07:38:55 51°19.004 2°54.589 8.8 215 8.6 101440 77
2002-03-12 07:39:00 51°19.011 2°54.614 9.8 218 8.6 101450 78
2002-03-12 07:39:05 51°19.019 2°54.638 9.7 218 8.6 101450 78
2002-03-12 07:39:10 51°19.026 2°54.662 10.3 212 8.6 101440 77
2002-03-12 07:39:15 51°19.034 2°54.687 9.5 214 8.6 101440 77
2002-03-12 07:39:19 51°19.04 2°54.706 9.2 214 8.6 101450 77
2002-03-12 07:39:25 51°19.049 2°54.735 9.6 218 8.6 101450 77
2002-03-12 07:39:30 51°19.056 2°54.761 9 213 8.6 101450 77
2002-03-12 07:39:35 51°19.064 2°54.784 9.2 215 8.6 101450 77
2002-03-12 07:39:40 51°19.071 2°54.809 9 215 8.6 101440 77
2002-03-12 07:39:45 51°19.079 2°54.833 9.1 210 8.6 101440 77
2002-03-12 07:39:50 51°19.086 2°54.858 9.1 215 8.5 101450 77
2002-03-12 07:39:55 51°19.095 2°54.881 9.2 213 8.5 101450 77
2002-03-12 07:39:59 51°19.1 2°54.902 9 217 8.6 101450 77
2002-03-12 07:40:05 51°19.11 2°54.93 9.8 214 8.6 101450 77
2002-03-12 07:40:10 51°19.116 2°54.955 9 217 8.6 101440 77
2002-03-12 07:40:15 51°19.125 2°54.979 9.4 213 8.6 101440 77
2002-03-12 07:40:19 51°19.13 2°54.999 8.8 217 8.6 101450 77
2002-03-12 07:40:25 51°19.14 2°55.028 9 215 8.6 101450 77
2002-03-12 07:40:30 51°19.146 2°55.053 9.7 216 8.6 101450 77
2002-03-12 07:40:35 51°19.155 2°55.077 9.9 216 8.6 101450 77
2002-03-12 07:40:39 51°19.16 2°55.097 8.7 221 8.6 101450 77
2002-03-12 07:40:45 51°19.17 2°55.125 9.2 212 8.6 101450 77
2002-03-12 07:40:50 51°19.176 2°55.15 8.7 218 8.6 101450 77
2002-03-12 07:40:55 51°19.185 2°55.174 8.9 215 8.6 101450 77
2002-03-12 07:40:59 51°19.19 2°55.194 8.7 216 8.6 101450 77
2002-03-12 07:41:05 51°19.2 2°55.223 9.4 217 8.6 101450 77
2002-03-12 07:41:10 51°19.206 2°55.248 9.3 219 8.6 101450 77
2002-03-12 07:41:15 51°19.214 2°55.272 9.5 212 8.6 101450 77
2002-03-12 07:41:19 51°19.219 2°55.292 8.3 223 8.6 101450 78
2002-03-12 07:41:25 51°19.229 2°55.321 9.6 218 8.6 101450 78
2002-03-12 07:41:30 51°19.236 2°55.346 9.3 221 8.6 101450 78
2002-03-12 07:41:35 51°19.244 2°55.37 8.7 217 8.6 101450 78
2002-03-12 07:41:40 51°19.251 2°55.395 8.8 223 8.6 101450 78
2002-03-12 07:41:45 51°19.259 2°55.418 10 216 8.6 101450 78
2002-03-12 07:41:50 51°19.266 2°55.443 8.6 221 8.6 101450 78
2002-03-12 07:41:55 51°19.275 2°55.467 8.9 217 8.6 101450 78
2002-03-12 07:42:00 51°19.281 2°55.492 9.2 224 8.6 101460 78
2002-03-12 07:42:05 51°19.29 2°55.516 9.2 216 8.6 101460 78
2002-03-12 07:42:10 51°19.296 2°55.541 8.9 220 8.6 101450 78
2002-03-12 07:42:15 51°19.304 2°55.564 9.2 218 8.6 101450 78
2002-03-12 07:42:20 51°19.311 2°55.589 9.5 223 8.6 101460 78
2002-03-12 07:42:25 51°19.32 2°55.613 9 216 8.6 101460 78
2002-03-12 07:42:30 51°19.326 2°55.638 9.5 225 8.6 101450 78
2002-03-12 07:42:35 51°19.335 2°55.661 9.5 216 8.6 101450 78
2002-03-12 07:42:40 51°19.342 2°55.686 9.3 224 8.6 101460 78
2002-03-12 07:42:45 51°19.35 2°55.71 9.4 215 8.6 101460 78
2002-03-12 07:42:50 51°19.357 2°55.734 9 222 8.6 101460 78
2002-03-12 07:42:55 51°19.365 2°55.758 9.2 214 8.6 101460 78
2002-03-12 07:43:00 51°19.372 2°55.783 9.5 224 8.6 101460 78
2002-03-12 07:43:05 51°19.38 2°55.807 9.3 217 8.6 101460 78
2002-03-12 07:43:10 51°19.387 2°55.831 9.5 225 8.6 101460 78
2002-03-12 07:43:15 51°19.395 2°55.856 8.8 219 8.6 101460 78
2002-03-12 07:43:20 51°19.402 2°55.88 8.9 221 8.6 101460 78
2002-03-12 07:43:25 51°19.409 2°55.904 8.7 217 8.6 101460 78
2002-03-12 07:43:30 51°19.417 2°55.928 8.8 227 8.6 101460 78
2002-03-12 07:43:35 51°19.425 2°55.953 8.8 220 8.6 101460 78
2002-03-12 07:43:40 51°19.433 2°55.977 8.6 222 8.6 101460 78
2002-03-12 07:43:45 51°19.44 2°56.001 9 221 8.6 101460 78
2002-03-12 07:43:50 51°19.448 2°56.025 8.7 225 8.6 101460 78
2002-03-12 07:43:55 51°19.455 2°56.05 9.3 221 8.6 101460 78
2002-03-12 07:43:59 51°19.461 2°56.069 9.3 222 8.6 101460 78
2002-03-12 07:44:05 51°19.47 2°56.099 8.8 222 8.6 101460 78
2002-03-12 07:44:10 51°19.478 2°56.122 9.3 221 8.6 101460 79
2002-03-12 07:44:15 51°19.485 2°56.148 8.3 222 8.6 101460 79
2002-03-12 07:44:20 51°19.493 2°56.171 9 218 8.6 101460 79
2002-03-12 07:44:25 51°19.5 2°56.196 8.6 222 8.6 101460 79
2002-03-12 07:44:30 51°19.508 2°56.22 9.6 218 8.6 101460 79
2002-03-12 07:44:35 51°19.515 2°56.245 9.5 225 8.6 101460 79
2002-03-12 07:44:40 51°19.524 2°56.268 9.5 216 8.6 101460 79
2002-03-12 07:44:45 51°19.53 2°56.294 8.6 225 8.6 101460 79
2002-03-12 07:44:50 51°19.539 2°56.317 9.1 217 8.6 101460 79
2002-03-12 07:44:55 51°19.545 2°56.342 8.7 225 8.6 101460 79
2002-03-12 07:45:00 51°19.554 2°56.365 9 218 8.6 101450 79
2002-03-12 07:45:05 51°19.561 2°56.391 8.8 223 8.6 101450 79
2002-03-12 07:45:10 51°19.57 2°56.414 9.5 217 8.6 101460 79
2002-03-12 07:45:15 51°19.576 2°56.439 8.9 226 8.6 101460 79
2002-03-12 07:45:20 51°19.584 2°56.463 9.3 215 8.6 101450 79
2002-03-12 07:45:25 51°19.591 2°56.488 9.6 220 8.6 101450 79
2002-03-12 07:45:30 51°19.599 2°56.512 9.2 212 8.6 101460 79
2002-03-12 07:45:35 51°19.606 2°56.537 9.4 224 8.6 101460 79
2002-03-12 07:45:40 51°19.614 2°56.561 9 214 8.6 101460 79
2002-03-12 07:45:45 51°19.62 2°56.586 8.8 225 8.6 101460 79
2002-03-12 07:45:50 51°19.628 2°56.61 9.7 214 8.6 101460 79
2002-03-12 07:45:55 51°19.635 2°56.635 8.5 135 8.6 101460 79
2002-03-12 07:46:00 51°19.642 2°56.659 8.9 214 8.5 101460 79
2002-03-12 07:46:05 51°19.649 2°56.684 9.1 222 8.5 101460 79
2002-03-12 07:46:10 51°19.657 2°56.708 9.2 213 8.6 101470 79
2002-03-12 07:46:15 51°19.664 2°56.733 9.2 223 8.6 101470 79
2002-03-12 07:46:20 51°19.672 2°56.757 9.6 214 8.5 101460 79
2002-03-12 07:46:25 51°19.679 2°56.782 8.8 221 8.5 101460 79
2002-03-12 07:46:30 51°19.686 2°56.806 8.9 214 8.5 101460 79
2002-03-12 07:46:35 51°19.694 2°56.831 8.9 220 8.5 101460 79
2002-03-12 07:46:40 51°19.701 2°56.856 9 211 8.5 101460 79
2002-03-12 07:46:45 51°19.709 2°56.88 9.4 221 8.5 101460 79
2002-03-12 07:46:50 51°19.716 2°56.905 9.6 214 8.5 101460 79
2002-03-12 07:46:55 51°19.723 2°56.929 8.8 219 8.5 101460 79
2002-03-12 07:47:00 51°19.73 2°56.954 9.4 213 8.5 101460 79
2002-03-12 07:47:05 51°19.738 2°56.978 8.6 219 8.5 101460 79
2002-03-12 07:47:10 51°19.746 2°57.003 8.9 214 8.5 101460 79
2002-03-12 07:47:14 51°19.752 2°57.022 8.9 216 8.5 101460 79
2002-03-12 07:47:20 51°19.76 2°57.052 9.1 213 8.5 101460 79
2002-03-12 07:47:25 51°19.768 2°57.076 8.9 217 8.5 101460 79
2002-03-12 07:47:30 51°19.775 2°57.101 9.1 212 8.5 101460 79
2002-03-12 07:47:35 51°19.783 2°57.125 9.4 214 8.5 101460 79
2002-03-12 07:47:39 51°19.788 2°57.145 9.4 214 8.5 101460 78
2002-03-12 07:47:45 51°19.798 2°57.174 9.5 216 8.5 101460 78
2002-03-12 07:47:50 51°19.804 2°57.2 9 216 8.5 101450 78
2002-03-12 07:47:55 51°19.812 2°57.223 9 213 8.5 101450 78
2002-03-12 07:48:00 51°19.819 2°57.249 9.3 215 8.4 101460 78
2002-03-12 07:48:05 51°19.827 2°57.273 9.7 210 8.4 101460 78
2002-03-12 07:48:10 51°19.834 2°57.298 9.2 218 8.4 101460 79
2002-03-12 07:48:15 51°19.842 2°57.321 9 214 8.4 101460 79
2002-03-12 07:48:20 51°19.849 2°57.347 9.3 216 8.4 101460 79
2002-03-12 07:48:25 51°19.857 2°57.371 9.2 211 8.4 101460 79
2002-03-12 07:48:30 51°19.864 2°57.396 8.7 216 8.4 101460 79
2002-03-12 07:48:35 51°19.872 2°57.42 9.2 211 8.4 101460 79
2002-03-12 07:48:40 51°19.879 2°57.445 9.1 215 8.4 101460 79
2002-03-12 07:48:45 51°19.887 2°57.469 9.9 212 8.4 101460 79
2002-03-12 07:48:50 51°19.894 2°57.494 8.9 215 8.4 101460 78
2002-03-12 07:48:55 51°19.902 2°57.518 9.2 210 8.4 101460 78
2002-03-12 07:49:00 51°19.909 2°57.543 9.6 215 8.4 101460 78
2002-03-12 07:49:05 51°19.917 2°57.567 9.7 212 8.4 101460 78
2002-03-12 07:49:10 51°19.924 2°57.592 9.3 215 8.4 101460 78
2002-03-12 07:49:15 51°19.932 2°57.616 9.3 211 8.4 101460 78
2002-03-12 07:49:20 51°19.939 2°57.641 8.7 216 8.4 101460 78
2002-03-12 07:49:25 51°19.947 2°57.666 9.4 213 8.4 101460 78
2002-03-12 07:49:30 51°19.954 2°57.69 9.4 218 8.4 101460 78
2002-03-12 07:49:35 51°19.962 2°57.715 8.6 210 8.4 101460 78
2002-03-12 07:49:40 51°19.97 2°57.739 9.1 214 8.4 101460 78
2002-03-12 07:49:45 51°19.976 2°57.764 9 213 8.4 101460 78
2002-03-12 07:49:50 51°19.984 2°57.788 8.7 216 8.4 101460 78
2002-03-12 07:49:55 51°19.991 2°57.813 8.7 216 8.4 101460 78
2002-03-12 07:50:00 51°20 2°57.836 9.4 213 8.4 101460 78
2002-03-12 07:50:05 51°20.006 2°57.861 8.9 217 8.4 101460 78
2002-03-12 07:50:10 51°20.015 2°57.885 8.7 212 8.4 101460 78
2002-03-12 07:50:15 51°20.021 2°57.91 8.4 215 8.4 101460 78
2002-03-12 07:50:20 51°20.029 2°57.934 8.6 212 8.4 101460 78
2002-03-12 07:50:25 51°20.036 2°57.959 8.9 216 8.4 101460 78
2002-03-12 07:50:30 51°20.044 2°57.983 9.5 210 8.4 101460 78
2002-03-12 07:50:35 51°20.052 2°58.008 8.3 216 8.4 101460 78
2002-03-12 07:50:40 51°20.059 2°58.032 8.4 211 8.3 101460 79
2002-03-12 07:50:45 51°20.067 2°58.056 9.1 215 8.3 101460 79
2002-03-12 07:50:50 51°20.074 2°58.081 8.8 211 8.4 101460 79
2002-03-12 07:50:55 51°20.082 2°58.105 8.8 212 8.4 101460 79
2002-03-12 07:51:00 51°20.09 2°58.13 9 211 8.3 101460 79
2002-03-12 07:51:05 51°20.097 2°58.154 8.4 214 8.3 101460 79
2002-03-12 07:51:10 51°20.105 2°58.179 9.1 215 8.4 101470 79
2002-03-12 07:51:15 51°20.112 2°58.203 9 212 8.4 101470 79
2002-03-12 07:51:20 51°20.119 2°58.228 9 212 8.4 101460 79
2002-03-12 07:51:25 51°20.128 2°58.252 9.1 211 8.4 101460 79
2002-03-12 07:51:30 51°20.135 2°58.278 8.8 213 8.4 101460 79
2002-03-12 07:51:35 51°20.143 2°58.302 8.9 211 8.4 101460 79
2002-03-12 07:51:40 51°20.15 2°58.327 8.4 214 8.4 101460 79
2002-03-12 07:51:45 51°20.158 2°58.35 8.8 209 8.4 101460 79
2002-03-12 07:51:50 51°20.165 2°58.376 8.8 216 8.4 101460 79
2002-03-12 07:51:55 51°20.173 2°58.4 9.4 211 8.4 101460 79
2002-03-12 07:52:00 51°20.18 2°58.425 8.8 214 8.4 101470 79
2002-03-12 07:52:05 51°20.189 2°58.448 9.5 209 8.4 101470 79
2002-03-12 07:52:10 51°20.195 2°58.473 8.4 215 8.3 101460 79
2002-03-12 07:52:15 51°20.204 2°58.497 8.6 207 8.3 101460 79
2002-03-12 07:52:20 51°20.21 2°58.522 8.3 217 8.4 101460 79
2002-03-12 07:52:25 51°20.219 2°58.546 8.5 208 8.4 101460 79
2002-03-12 07:52:30 51°20.226 2°58.571 8.4 220 8.3 101460 79
2002-03-12 07:52:35 51°20.234 2°58.595 8.5 209 8.3 101460 79
2002-03-12 07:52:40 51°20.241 2°58.62 8.6 220 8.3 101460 79
2002-03-12 07:52:45 51°20.249 2°58.644 8.9 208 8.3 101460 79
2002-03-12 07:52:50 51°20.256 2°58.669 8.7 220 8.3 101470 79
2002-03-12 07:52:55 51°20.264 2°58.692 9.3 208 8.3 101470 79
2002-03-12 07:52:59 51°20.269 2°58.713 8.7 217 8.3 101460 79
2002-03-12 07:53:05 51°20.279 2°58.741 8.8 211 8.3 101460 79
2002-03-12 07:53:10 51°20.286 2°58.766 8.7 218 8.3 101460 79
2002-03-12 07:53:15 51°20.294 2°58.79 9.5 211 8.3 101460 79
2002-03-12 07:53:20 51°20.301 2°58.815 8.8 215 8.3 101460 79
2002-03-12 07:53:25 51°20.309 2°58.839 8.8 209 8.3 101460 79
2002-03-12 07:53:30 51°20.316 2°58.863 8.9 217 8.3 101470 79
2002-03-12 07:53:35 51°20.324 2°58.888 9.6 208 8.3 101470 79
2002-03-12 07:53:40 51°20.331 2°58.913 8.4 217 8.3 101460 79
2002-03-12 07:53:45 51°20.338 2°58.937 8.9 210 8.3 101460 79
2002-03-12 07:53:50 51°20.346 2°58.961 9 217 8.3 101460 79
2002-03-12 07:53:55 51°20.353 2°58.986 8.8 211 8.3 101460 79
2002-03-12 07:54:00 51°20.361 2°59.01 9 218 8.3 101460 79
2002-03-12 07:54:05 51°20.368 2°59.035 8.6 213 8.3 101460 79
2002-03-12 07:54:10 51°20.376 2°59.059 8.8 217 8.3 101460 79
2002-03-12 07:54:15 51°20.384 2°59.085 8.6 216 8.3 101460 79
2002-03-12 07:54:20 51°20.392 2°59.109 9.1 220 8.3 101470 79
2002-03-12 07:54:25 51°20.399 2°59.134 8.7 214 8.3 101470 79
2002-03-12 07:54:30 51°20.407 2°59.158 9.1 219 8.3 101460 79
2002-03-12 07:54:35 51°20.414 2°59.183 8.6 217 8.3 101460 79
2002-03-12 07:54:40 51°20.422 2°59.207 8.5 214 8.3 101470 79
2002-03-12 07:54:45 51°20.429 2°59.232 8.8 215 8.3 101470 79
2002-03-12 07:54:50 51°20.438 2°59.256 9.5 216 8.3 101460 79
2002-03-12 07:54:55 51°20.444 2°59.282 8.9 217 8.3 101460 79
2002-03-12 07:55:00 51°20.453 2°59.305 8.6 213 8.3 101470 79
2002-03-12 07:55:05 51°20.459 2°59.331 8.9 218 8.3 101470 79
2002-03-12 07:55:10 51°20.467 2°59.355 9.3 214 8.3 101460 79
2002-03-12 07:55:15 51°20.474 2°59.38 8.4 218 8.3 101460 79
2002-03-12 07:55:20 51°20.482 2°59.404 8.5 213 8.3 101460 79
2002-03-12 07:55:25 51°20.489 2°59.43 8.7 216 8.3 101460 79
2002-03-12 07:55:30 51°20.496 2°59.454 8.4 212 8.3 101470 79
2002-03-12 07:55:35 51°20.503 2°59.48 8.4 216 8.3 101470 79
2002-03-12 07:55:40 51°20.511 2°59.504 8.5 214 8.3 101460 79
2002-03-12 07:55:45 51°20.517 2°59.53 8.3 215 8.3 101460 79
2002-03-12 07:55:50 51°20.525 2°59.554 8.4 211 8.3 101460 79
2002-03-12 07:55:55 51°20.532 2°59.58 7.9 216 8.3 101460 79
2002-03-12 07:56:00 51°20.539 2°59.605 8.7 213 8.3 101470 79
2002-03-12 07:56:05 51°20.546 2°59.63 7.8 215 8.3 101470 79
2002-03-12 07:56:10 51°20.553 2°59.654 8.9 213 8.3 101470 79
2002-03-12 07:56:15 51°20.56 2°59.679 8.7 216 8.3 101470 79
2002-03-12 07:56:20 51°20.568 2°59.704 8.8 216 8.3 101470 79
2002-03-12 07:56:25 51°20.575 2°59.729 8.4 213 8.3 101470 79
2002-03-12 07:56:30 51°20.582 2°59.754 8.1 215 8.3 101470 79
2002-03-12 07:56:35 51°20.59 2°59.778 9.2 217 8.3 101470 79
2002-03-12 07:56:40 51°20.597 2°59.803 8.5 216 8.3 101470 79
2002-03-12 07:56:45 51°20.604 2°59.828 8.7 215 8.3 101470 79
2002-03-12 07:56:50 51°20.612 2°59.853 7.8 217 8.3 101460 79
2002-03-12 07:56:55 51°20.619 2°59.878 8.8 216 8.3 101460 79
2002-03-12 07:57:00 51°20.626 2°59.903 8.3 220 8.3 101470 79
2002-03-12 07:57:05 51°20.633 2°59.928 8.6 218 8.3 101470 79
2002-03-12 07:57:10 51°20.641 2°59.953 8.1 218 8.3 101470 79
2002-03-12 07:57:15 51°20.648 2°59.979 8.2 219 8.3 101470 79
2002-03-12 07:57:20 51°20.655 3°0.004 8.3 215 8.3 101470 79
2002-03-12 07:57:25 51°20.661 3°0.03 8.9 220 8.3 101470 79
2002-03-12 07:57:30 51°20.669 3°0.055 8.5 220 8.4 101470 79
2002-03-12 07:57:35 51°20.675 3°0.081 8.7 221 8.4 101470 79
2002-03-12 07:57:40 51°20.682 3°0.106 8.2 213 8.4 101470 79
2002-03-12 07:57:45 51°20.689 3°0.131 8.3 219 8.4 101470 79
2002-03-12 07:57:50 51°20.697 3°0.156 9 216 8.4 101470 79
2002-03-12 07:57:55 51°20.704 3°0.182 8.1 220 8.4 101470 79
2002-03-12 07:58:00 51°20.711 3°0.207 8.4 215 8.4 101470 79
2002-03-12 07:58:05 51°20.718 3°0.232 9 216 8.4 101470 79
2002-03-12 07:58:10 51°20.725 3°0.257 8 221 8.4 101470 79
2002-03-12 07:58:15 51°20.732 3°0.282 8.9 218 8.4 101470 79
2002-03-12 07:58:20 51°20.739 3°0.308 8.2 218 8.4 101470 79
2002-03-12 07:58:25 51°20.746 3°0.333 8.5 216 8.4 101470 79
2002-03-12 07:58:30 51°20.753 3°0.358 8.8 217 8.3 101470 79
2002-03-12 07:58:35 51°20.76 3°0.384 8.7 218 8.3 101470 79
2002-03-12 07:58:40 51°20.768 3°0.41 8.5 218 8.3 101470 79
2002-03-12 07:58:45 51°20.775 3°0.435 8.9 216 8.3 101470 79
2002-03-12 07:58:50 51°20.781 3°0.46 9 218 8.3 101470 79
2002-03-12 07:58:55 51°20.789 3°0.485 8.8 218 8.3 101470 79
2002-03-12 07:59:00 51°20.795 3°0.511 8.9 220 8.3 101470 79
2002-03-12 07:59:05 51°20.802 3°0.536 8.2 214 8.3 101470 79
2002-03-12 07:59:10 51°20.809 3°0.561 8.7 219 8.3 101470 79
2002-03-12 07:59:15 51°20.817 3°0.586 8.9 216 8.3 101470 79
2002-03-12 07:59:20 51°20.823 3°0.612 8.8 220 8.3 101470 79
2002-03-12 07:59:25 51°20.83 3°0.637 9.1 219 8.3 101470 79
2002-03-12 07:59:30 51°20.838 3°0.662 8.5 217 8.3 101470 79
2002-03-12 07:59:35 51°20.844 3°0.688 9 216 8.3 101470 79
2002-03-12 07:59:40 51°20.851 3°0.713 8.7 217 8.3 101470 79
2002-03-12 07:59:45 51°20.858 3°0.739 9.2 218 8.3 101470 79
2002-03-12 07:59:50 51°20.865 3°0.764 9.1 218 8.3 101470 79
2002-03-12 07:59:55 51°20.871 3°0.789 8.4 216 8.3 101470 79
2002-03-12 08:00:00 51°20.878 3°0.815 8.5 217 8.3 101470 79
2002-03-12 08:00:05 51°20.885 3°0.84 9 219 8.3 101470 79
2002-03-12 08:00:10 51°20.892 3°0.866 8.6 220 8.3 101470 79
2002-03-12 08:00:14 51°20.897 3°0.886 8.5 216 8.3 101470 79
2002-03-12 08:00:20 51°20.905 3°0.917 8.6 217 8.3 101470 79
2002-03-12 08:00:25 51°20.912 3°0.942 8.6 219 8.3 101470 79
2002-03-12 08:00:30 51°20.919 3°0.968 8.2 218 8.3 101470 79
2002-03-12 08:00:35 51°20.925 3°0.993 8.1 220 8.3 101470 79
2002-03-12 08:00:40 51°20.932 3°1.019 8.1 215 8.3 101470 79
2002-03-12 08:00:45 51°20.939 3°1.044 8.5 217 8.3 101470 79
2002-03-12 08:00:50 51°20.946 3°1.069 8.3 217 8.3 101470 79
2002-03-12 08:00:55 51°20.953 3°1.095 8.7 218 8.3 101470 79
2002-03-12 08:01:00 51°20.959 3°1.12 8.4 220 8.3 101470 79
2002-03-12 08:01:05 51°20.966 3°1.145 8.3 217 8.3 101470 79
2002-03-12 08:01:10 51°20.973 3°1.171 8.4 219 8.3 101470 79
2002-03-12 08:01:15 51°20.979 3°1.196 8.4 216 8.3 101470 79
2002-03-12 08:01:20 51°20.986 3°1.222 8.5 219 8.3 101470 79
2002-03-12 08:01:25 51°20.993 3°1.247 8.4 214 8.3 101470 79
2002-03-12 08:01:30 51°21 3°1.273 7.8 223 8.3 101470 79
2002-03-12 08:01:35 51°21.007 3°1.298 8.5 215 8.3 101470 79
2002-03-12 08:01:39 51°21.012 3°1.319 8.5 220 8.3 101470 79
2002-03-12 08:01:45 51°21.021 3°1.349 8.8 219 8.3 101470 79
2002-03-12 08:01:50 51°21.028 3°1.374 8.6 220 8.3 101470 79
2002-03-12 08:01:55 51°21.034 3°1.4 8.5 217 8.3 101470 79
2002-03-12 08:02:00 51°21.041 3°1.425 8 219 8.3 101470 79
2002-03-12 08:02:05 51°21.048 3°1.451 8.5 217 8.3 101470 79
2002-03-12 08:02:10 51°21.055 3°1.476 8.3 217 8.3 101470 79
2002-03-12 08:02:15 51°21.062 3°1.502 8.6 218 8.3 101470 79
2002-03-12 08:02:20 51°21.069 3°1.527 8.3 219 8.3 101470 79
2002-03-12 08:02:25 51°21.075 3°1.553 8.6 218 8.3 101470 79
2002-03-12 08:02:30 51°21.082 3°1.579 8.8 217 8.3 101470 79
2002-03-12 08:02:35 51°21.089 3°1.605 8.3 220 8.3 101470 79
2002-03-12 08:02:40 51°21.096 3°1.63 8.1 215 8.3 101470 79
2002-03-12 08:02:45 51°21.102 3°1.656 8.3 218 8.3 101470 79
2002-03-12 08:02:50 51°21.11 3°1.681 8.1 214 8.3 101470 79
2002-03-12 08:02:55 51°21.116 3°1.707 8.7 218 8.3 101470 79
2002-03-12 08:03:00 51°21.124 3°1.732 8.5 215 8.3 101470 79
2002-03-12 08:03:05 51°21.13 3°1.758 8.4 219 8.3 101470 79
2002-03-12 08:03:10 51°21.137 3°1.783 9 215 8.3 101470 79
2002-03-12 08:03:15 51°21.144 3°1.808 8.2 218 8.3 101470 79
2002-03-12 08:03:20 51°21.151 3°1.833 8.3 212 8.3 101470 79
2002-03-12 08:03:25 51°21.158 3°1.859 8.2 218 8.3 101470 79
2002-03-12 08:03:30 51°21.165 3°1.884 8.1 213 8.3 101460 79
2002-03-12 08:03:35 51°21.171 3°1.91 8.6 215 8.3 101460 79
2002-03-12 08:03:39 51°21.177 3°1.93 8.6 211 8.3 101470 79
2002-03-12 08:03:45 51°21.185 3°1.96 8.5 216 8.3 101470 79
2002-03-12 08:03:50 51°21.192 3°1.986 8.4 214 8.3 101470 79
2002-03-12 08:03:55 51°21.199 3°2.011 7.9 216 8.3 101470 79
2002-03-12 08:04:00 51°21.205 3°2.037 8.2 215 8.4 101470 79
2002-03-12 08:04:05 51°21.213 3°2.062 8.2 216 8.4 101470 79
2002-03-12 08:04:10 51°21.219 3°2.088 8.6 214 8.3 101470 79
2002-03-12 08:04:15 51°21.226 3°2.113 8.6 212 8.3 101470 79
2002-03-12 08:04:20 51°21.233 3°2.139 7.9 214 8.4 101470 79
2002-03-12 08:04:25 51°21.24 3°2.164 8 213 8.4 101470 79
2002-03-12 08:04:30 51°21.246 3°2.19 8.3 215 8.4 101460 79
2002-03-12 08:04:35 51°21.253 3°2.215 8.1 213 8.4 101460 79
2002-03-12 08:04:40 51°21.26 3°2.241 8 214 8.4 101460 79
2002-03-12 08:04:45 51°21.266 3°2.266 8.7 212 8.4 101460 79
2002-03-12 08:04:50 51°21.273 3°2.292 8.2 216 8.4 101460 79
2002-03-12 08:04:55 51°21.28 3°2.318 7.9 213 8.4 101460 79
2002-03-12 08:05:00 51°21.287 3°2.343 8.3 215 8.4 101470 79
2002-03-12 08:05:05 51°21.294 3°2.368 8.4 214 8.4 101470 79
2002-03-12 08:05:10 51°21.301 3°2.394 8.2 214 8.4 101470 79
2002-03-12 08:05:15 51°21.308 3°2.419 8.4 214 8.4 101470 79
2002-03-12 08:05:20 51°21.314 3°2.445 8 210 8.4 101460 79
2002-03-12 08:05:25 51°21.321 3°2.47 8 213 8.4 101460 79
2002-03-12 08:05:30 51°21.328 3°2.496 7.7 214 8.4 101470 79
2002-03-12 08:05:35 51°21.335 3°2.521 7.8 213 8.4 101470 79
2002-03-12 08:05:40 51°21.341 3°2.546 7.8 215 8.4 101460 79
2002-03-12 08:05:45 51°21.348 3°2.572 8 215 8.4 101460 79
2002-03-12 08:05:50 51°21.355 3°2.597 8 214 8.5 101470 79
2002-03-12 08:05:55 51°21.362 3°2.622 8.1 215 8.5 101470 79
2002-03-12 08:06:00 51°21.369 3°2.648 8.3 214 8.5 101470 79
2002-03-12 08:06:05 51°21.375 3°2.673 7.7 214 8.5 101470 79
2002-03-12 08:06:10 51°21.383 3°2.698 8.3 211 8.5 101460 80
2002-03-12 08:06:15 51°21.389 3°2.724 7.7 218 8.5 101460 80
2002-03-12 08:06:20 51°21.396 3°2.749 8.2 210 8.5 101460 80
2002-03-12 08:06:25 51°21.403 3°2.774 7.7 215 8.5 101460 80
2002-03-12 08:06:30 51°21.41 3°2.799 8.3 210 8.5 101460 80
2002-03-12 08:06:35 51°21.416 3°2.825 7.6 217 8.5 101460 80
2002-03-12 08:06:40 51°21.423 3°2.85 7.8 210 8.5 101470 80
2002-03-12 08:06:45 51°21.43 3°2.876 8.1 215 8.5 101470 80
2002-03-12 08:06:50 51°21.437 3°2.901 8.4 211 8.5 101470 80
2002-03-12 08:06:55 51°21.443 3°2.927 8 218 8.5 101470 80
2002-03-12 08:06:59 51°21.449 3°2.946 7.7 211 8.5 101470 80
2002-03-12 08:07:05 51°21.456 3°2.977 7.5 216 8.5 101470 80
2002-03-12 08:07:10 51°21.464 3°3.002 8.2 210 8.5 101460 80
2002-03-12 08:07:15 51°21.47 3°3.028 8.3 217 8.5 101460 80
2002-03-12 08:07:19 51°21.476 3°3.047 7.8 212 8.5 101460 80
2002-03-12 08:07:25 51°21.484 3°3.077 7.6 212 8.5 101460 80
2002-03-12 08:07:30 51°21.491 3°3.103 8.3 215 8.5 101470 80
2002-03-12 08:07:35 51°21.499 3°3.127 8.4 213 8.5 101470 80
2002-03-12 08:07:40 51°21.505 3°3.152 7.7 214 8.5 101460 80
2002-03-12 08:07:45 51°21.513 3°3.177 7.8 212 8.5 101460 80
2002-03-12 08:07:50 51°21.519 3°3.202 8.5 214 8.5 101460 80
2002-03-12 08:07:55 51°21.527 3°3.227 7.9 211 8.5 101460 80
2002-03-12 08:08:01 51°21.534 3°3.257 8 214 8.5 101460 80
2002-03-12 08:08:05 51°21.54 3°3.276 8.3 211 8.5 101460 80
2002-03-12 08:08:10 51°21.546 3°3.302 8.2 216 8.5 101460 80
2002-03-12 08:08:15 51°21.554 3°3.327 8.5 210 8.5 101460 80
2002-03-12 08:08:20 51°21.56 3°3.352 7.9 216 8.5 101470 80
2002-03-12 08:08:25 51°21.567 3°3.376 8.4 212 8.5 101470 80
2002-03-12 08:08:30 51°21.574 3°3.402 8.1 217 8.5 101470 80
2002-03-12 08:08:35 51°21.581 3°3.426 8 211 8.5 101470 80
2002-03-12 08:08:40 51°21.588 3°3.452 7.8 218 8.5 101470 80
2002-03-12 08:08:45 51°21.595 3°3.476 8.4 211 8.5 101470 80
2002-03-12 08:08:50 51°21.602 3°3.501 7.7 214 8.5 101470 80
2002-03-12 08:08:55 51°21.609 3°3.526 8.1 215 8.5 101470 80
2002-03-12 08:09:00 51°21.615 3°3.551 8.4 213 8.5 101470 80
2002-03-12 08:09:05 51°21.622 3°3.576 8.5 215 8.5 101470 80
2002-03-12 08:09:10 51°21.629 3°3.601 8.4 212 8.5 101460 80
2002-03-12 08:09:15 51°21.636 3°3.626 8.4 214 8.5 101460 80
2002-03-12 08:09:21 51°21.644 3°3.656 7.9 213 8.4 101470 80
2002-03-12 08:09:25 51°21.65 3°3.676 8.1 211 8.4 101470 80
2002-03-12 08:09:30 51°21.657 3°3.701 8.2 214 8.4 101460 80
2002-03-12 08:09:35 51°21.664 3°3.726 8 210 8.4 101460 80
2002-03-12 08:09:40 51°21.671 3°3.751 8.1 213 8.4 101460 80
2002-03-12 08:09:45 51°21.678 3°3.776 7.8 212 8.4 101460 80
2002-03-12 08:09:50 51°21.685 3°3.801 7.8 213 8.4 101460 80
2002-03-12 08:09:55 51°21.692 3°3.826 7.9 217 8.4 101460 80
2002-03-12 08:10:00 51°21.699 3°3.851 7.7 214 8.4 101460 80
2002-03-12 08:10:05 51°21.705 3°3.876 8.4 217 8.4 101460 80
2002-03-12 08:10:10 51°21.713 3°3.9 8.1 213 8.4 101460 80
2002-03-12 08:10:15 51°21.72 3°3.926 7.8 215 8.4 101460 80
2002-03-12 08:10:20 51°21.726 3°3.951 8.5 212 8.4 101460 80
2002-03-12 08:10:25 51°21.734 3°3.975 8.2 215 8.4 101460 80
2002-03-12 08:10:30 51°21.741 3°4.001 8.2 216 8.4 101460 80
2002-03-12 08:10:35 51°21.748 3°4.025 8.5 215 8.4 101460 80
2002-03-12 08:10:39 51°21.753 3°4.045 8.1 216 8.4 101460 80
2002-03-12 08:10:45 51°21.762 3°4.075 8.1 217 8.4 101460 80
2002-03-12 08:10:50 51°21.769 3°4.1 7.9 216 8.4 101470 80
2002-03-12 08:10:55 51°21.776 3°4.125 7.9 213 8.4 101470 80
2002-03-12 08:11:00 51°21.783 3°4.15 8.3 214 8.4 101460 80
2002-03-12 08:11:05 51°21.79 3°4.175 8 214 8.4 101460 80
2002-03-12 08:11:10 51°21.797 3°4.2 8.3 215 8.4 101460 80
2002-03-12 08:11:15 51°21.804 3°4.224 8.5 211 8.4 101460 80
2002-03-12 08:11:20 51°21.811 3°4.249 7.8 213 8.3 101460 80
2002-03-12 08:11:25 51°21.819 3°4.273 8 215 8.3 101460 80
2002-03-12 08:11:30 51°21.825 3°4.298 8 212 8.3 101460 80
2002-03-12 08:11:35 51°21.833 3°4.323 7.9 212 8.3 101460 80
2002-03-12 08:11:40 51°21.839 3°4.347 7.8 213 8.3 101470 80
2002-03-12 08:11:45 51°21.847 3°4.372 8.2 213 8.3 101470 80
2002-03-12 08:11:50 51°21.854 3°4.396 8.3 212 8.3 101470 80
2002-03-12 08:11:55 51°21.861 3°4.421 8 212 8.3 101470 80
2002-03-12 08:12:00 51°21.867 3°4.445 7.8 215 8.3 101460 80
2002-03-12 08:12:05 51°21.875 3°4.47 7.9 217 8.3 101460 80
2002-03-12 08:12:10 51°21.882 3°4.495 8 214 8.3 101460 80
2002-03-12 08:12:15 51°21.887 3°4.52 7.7 220 8.3 101460 80
2002-03-12 08:12:20 51°21.894 3°4.545 7.9 215 8.3 101460 80
2002-03-12 08:12:25 51°21.899 3°4.571 8.6 219 8.3 101460 80
2002-03-12 08:12:30 51°21.905 3°4.596 8.5 216 8.3 101460 80
2002-03-12 08:12:35 51°21.909 3°4.622 8.3 215 8.3 101460 80
2002-03-12 08:12:40 51°21.914 3°4.648 7.9 216 8.3 101470 80
2002-03-12 08:12:45 51°21.918 3°4.674 8.6 214 8.3 101470 80
2002-03-12 08:12:50 51°21.922 3°4.7 8.7 219 8.3 101460 80
2002-03-12 08:12:55 51°21.926 3°4.727 9.2 216 8.3 101460 80
2002-03-12 08:13:00 51°21.93 3°4.754 7.6 215 8.3 101470 80
2002-03-12 08:13:05 51°21.934 3°4.78 8.4 215 8.3 101470 80
2002-03-12 08:13:10 51°21.938 3°4.806 8.3 220 8.3 101470 80
2002-03-12 08:13:15 51°21.942 3°4.833 8.1 218 8.3 101470 80
2002-03-12 08:13:20 51°21.947 3°4.859 8.8 214 8.3 101470 79
2002-03-12 08:13:25 51°21.951 3°4.885 9.1 220 8.3 101470 79
2002-03-12 08:13:30 51°21.955 3°4.912 8.1 214 8.3 101470 79
2002-03-12 08:13:35 51°21.96 3°4.938 8.1 217 8.3 101470 79
2002-03-12 08:13:40 51°21.965 3°4.964 8.1 217 8.3 101470 79
2002-03-12 08:13:45 51°21.969 3°4.99 8.6 217 8.3 101470 79
2002-03-12 08:13:50 51°21.973 3°5.016 8.6 216 8.3 101460 79
2002-03-12 08:13:55 51°21.978 3°5.043 8.6 214 8.3 101460 79
2002-03-12 08:14:00 51°21.982 3°5.069 8.7 217 8.3 101470 79
2002-03-12 08:14:05 51°21.987 3°5.096 8 214 8.3 101470 79
2002-03-12 08:14:10 51°21.991 3°5.121 7.8 216 8.3 101470 79
2002-03-12 08:14:15 51°21.995 3°5.148 7.9 216 8.3 101470 79
2002-03-12 08:14:19 51°21.999 3°5.169 8.4 218 8.3 101470 79
2002-03-12 08:14:25 51°22.004 3°5.201 8.2 215 8.3 101470 79
2002-03-12 08:14:30 51°22.009 3°5.226 8.1 216 8.3 101460 79
2002-03-12 08:14:35 51°22.013 3°5.253 8.4 215 8.3 101460 79
2002-03-12 08:14:40 51°22.018 3°5.279 8.3 215 8.3 101470 79
2002-03-12 08:14:45 51°22.022 3°5.306 8.2 220 8.3 101470 79
2002-03-12 08:14:50 51°22.028 3°5.332 8.4 216 8.3 101470 79
2002-03-12 08:14:55 51°22.031 3°5.359 8 217 8.3 101470 79
2002-03-12 08:15:00 51°22.037 3°5.385 7.9 214 8.3 101460 79
2002-03-12 08:15:05 51°22.04 3°5.412 7.8 216 8.3 101460 79
2002-03-12 08:15:10 51°22.045 3°5.438 7.9 216 8.3 101460 79
2002-03-12 08:15:15 51°22.049 3°5.465 8.3 216 8.3 101460 79
2002-03-12 08:15:20 51°22.054 3°5.492 8.6 215 8.3 101470 79
2002-03-12 08:15:25 51°22.059 3°5.519 8.2 216 8.3 101470 79
2002-03-12 08:15:30 51°22.063 3°5.545 7.7 214 8.3 101460 79
2002-03-12 08:15:35 51°22.068 3°5.572 7.9 213 8.3 101460 79
2002-03-12 08:15:40 51°22.072 3°5.598 8.2 216 8.3 101470 79
2002-03-12 08:15:45 51°22.077 3°5.625 8.5 214 8.3 101470 79
2002-03-12 08:15:50 51°22.081 3°5.652 7.9 215 8.3 101460 79
2002-03-12 08:15:55 51°22.086 3°5.679 8.2 215 8.3 101460 79
2002-03-12 08:15:59 51°22.089 3°5.701 7.7 215 8.3 101470 79
2002-03-12 08:16:05 51°22.095 3°5.733 7.7 215 8.3 101470 79
2002-03-12 08:16:10 51°22.1 3°5.759 8 213 8.3 101470 79
2002-03-12 08:16:15 51°22.104 3°5.786 7.9 216 8.3 101470 79
2002-03-12 08:16:20 51°22.109 3°5.813 8 213 8.3 101470 79
2002-03-12 08:16:25 51°22.113 3°5.84 8 214 8.3 101470 79
2002-03-12 08:16:30 51°22.118 3°5.866 7.7 216 8.3 101470 79
2002-03-12 08:16:35 51°22.122 3°5.893 8.3 216 8.3 101470 79
2002-03-12 08:16:40 51°22.127 3°5.92 7.9 213 8.3 101460 79
2002-03-12 08:16:45 51°22.132 3°5.947 7.9 213 8.3 101460 79
2002-03-12 08:16:50 51°22.136 3°5.973 7.6 217 8.3 101470 79
2002-03-12 08:16:55 51°22.141 3°6 8 213 8.3 101470 79
2002-03-12 08:17:00 51°22.146 3°6.026 8.2 215 8.3 101470 79
2002-03-12 08:17:05 51°22.15 3°6.053 7.5 215 8.3 101470 79
2002-03-12 08:17:10 51°22.155 3°6.08 8 216 8.3 101470 80
2002-03-12 08:17:15 51°22.159 3°6.106 7.9 217 8.3 101470 80
2002-03-12 08:17:21 51°22.165 3°6.138 8.2 213 8.3 101470 80
2002-03-12 08:17:25 51°22.169 3°6.159 7.4 212 8.3 101470 80
2002-03-12 08:17:30 51°22.173 3°6.186 7.9 214 8.3 101470 80
2002-03-12 08:17:35 51°22.179 3°6.213 8.2 213 8.3 101470 80
2002-03-12 08:17:40 51°22.182 3°6.24 8 216 8.3 101470 80
2002-03-12 08:17:45 51°22.187 3°6.266 8 214 8.3 101470 80
2002-03-12 08:17:50 51°22.191 3°6.293 8 214 8.3 101470 80
2002-03-12 08:17:55 51°22.197 3°6.319 8.2 210 8.3 101470 80
2002-03-12 08:18:00 51°22.201 3°6.346 8.1 214 8.3 101470 80
2002-03-12 08:18:05 51°22.206 3°6.372 7.8 212 8.3 101470 80
2002-03-12 08:18:10 51°22.21 3°6.399 7.7 214 8.3 101460 80
2002-03-12 08:18:15 51°22.215 3°6.426 8.1 214 8.3 101460 80
2002-03-12 08:18:20 51°22.22 3°6.453 7.6 214 8.3 101470 80
2002-03-12 08:18:25 51°22.224 3°6.479 7.6 211 8.3 101470 80
2002-03-12 08:18:30 51°22.229 3°6.506 7.3 215 8.3 101470 80
2002-03-12 08:18:35 51°22.234 3°6.532 7.5 212 8.3 101470 80
2002-03-12 08:18:40 51°22.238 3°6.559 8 215 8.3 101460 80
2002-03-12 08:18:45 51°22.243 3°6.586 7.5 214 8.3 101460 80
2002-03-12 08:18:50 51°22.248 3°6.613 7.4 216 8.3 101470 80
2002-03-12 08:18:55 51°22.253 3°6.64 7.5 213 8.3 101470 80
2002-03-12 08:19:00 51°22.258 3°6.666 7.8 213 8.3 101470 80
2002-03-12 08:19:05 51°22.263 3°6.693 7.8 216 8.3 101470 80
2002-03-12 08:19:10 51°22.268 3°6.72 8.1 211 8.3 101460 80
2002-03-12 08:19:15 51°22.272 3°6.747 7.6 214 8.3 101460 80
2002-03-12 08:19:20 51°22.277 3°6.774 8.1 213 8.3 101470 80
2002-03-12 08:19:25 51°22.281 3°6.801 8.1 211 8.3 101470 80
2002-03-12 08:19:30 51°22.286 3°6.829 7.8 215 8.3 101460 80
2002-03-12 08:19:35 51°22.291 3°6.855 7.7 212 8.3 101460 80
2002-03-12 08:19:40 51°22.295 3°6.882 7.6 216 8.3 101470 80
2002-03-12 08:19:45 51°22.3 3°6.909 7.9 212 8.3 101470 80
2002-03-12 08:19:50 51°22.305 3°6.937 7.4 214 8.3 101470 80
2002-03-12 08:19:55 51°22.309 3°6.964 7.3 214 8.3 101470 80
2002-03-12 08:20:00 51°22.314 3°6.99 7.6 212 8.3 101470 80
2002-03-12 08:20:05 51°22.319 3°7.017 7.6 214 8.3 101470 80
2002-03-12 08:20:10 51°22.323 3°7.045 7.9 214 8.3 101470 80
2002-03-12 08:20:15 51°22.328 3°7.071 7.6 211 8.3 101470 80
2002-03-12 08:20:20 51°22.333 3°7.098 7.9 215 8.3 101470 80
2002-03-12 08:20:26 51°22.339 3°7.131 7.6 213 8.3 101470 80
2002-03-12 08:20:30 51°22.342 3°7.153 7.6 215 8.3 101470 80
2002-03-12 08:20:35 51°22.347 3°7.18 7.4 211 8.3 101470 80
2002-03-12 08:20:40 51°22.351 3°7.207 8 213 8.3 101470 80
2002-03-12 08:20:45 51°22.356 3°7.234 8.3 209 8.3 101470 80
2002-03-12 08:20:50 51°22.36 3°7.262 7.9 215 8.4 101460 80
2002-03-12 08:20:55 51°22.366 3°7.29 7.6 211 8.4 101460 80
2002-03-12 08:21:00 51°22.37 3°7.317 7.8 214 8.4 101470 80
2002-03-12 08:21:05 51°22.374 3°7.343 8 210 8.4 101470 80
2002-03-12 08:21:10 51°22.379 3°7.371 7.7 212 8.4 101470 80
2002-03-12 08:21:15 51°22.383 3°7.398 7.4 210 8.4 101470 80
2002-03-12 08:21:20 51°22.388 3°7.426 7.4 214 8.4 101460 80
2002-03-12 08:21:25 51°22.392 3°7.453 7.3 213 8.4 101460 80
2002-03-12 08:21:30 51°22.397 3°7.481 7.4 213 8.4 101470 80
2002-03-12 08:21:35 51°22.401 3°7.508 7.8 213 8.4 101470 80
2002-03-12 08:21:40 51°22.405 3°7.535 7.6 213 8.4 101470 80
2002-03-12 08:21:45 51°22.41 3°7.562 7.7 212 8.4 101470 80
2002-03-12 08:21:50 51°22.414 3°7.59 8.1 214 8.4 101470 80
2002-03-12 08:21:55 51°22.419 3°7.617 7.4 211 8.4 101470 80
2002-03-12 08:22:00 51°22.423 3°7.645 7.5 213 8.4 101470 80
2002-03-12 08:22:05 51°22.428 3°7.672 8.2 212 8.4 101470 80
2002-03-12 08:22:10 51°22.432 3°7.699 7.3 213 8.4 101470 80
2002-03-12 08:22:15 51°22.437 3°7.726 7.6 212 8.4 101470 80
2002-03-12 08:22:20 51°22.442 3°7.753 8.1 214 8.4 101460 80
2002-03-12 08:22:25 51°22.447 3°7.781 7.7 211 8.4 101460 80
2002-03-12 08:22:30 51°22.451 3°7.809 7.9 214 8.4 101470 80
2002-03-12 08:22:35 51°22.456 3°7.836 7.5 214 8.4 101470 80
2002-03-12 08:22:40 51°22.46 3°7.863 7.6 213 8.4 101470 80
2002-03-12 08:22:45 51°22.464 3°7.89 8.4 212 8.4 101470 80
2002-03-12 08:22:50 51°22.468 3°7.918 8.3 210 8.4 101470 79
2002-03-12 08:22:55 51°22.473 3°7.947 7.6 213 8.4 101470 79
2002-03-12 08:22:59 51°22.476 3°7.969 7.8 211 8.4 101460 79
2002-03-12 08:23:05 51°22.482 3°8.001 7.3 212 8.4 101460 79
2002-03-12 08:23:10 51°22.486 3°8.028 7.9 212 8.4 101470 79
2002-03-12 08:23:15 51°22.491 3°8.056 8.2 211 8.4 101470 79
2002-03-12 08:23:20 51°22.495 3°8.085 8.1 213 8.4 101470 79
2002-03-12 08:23:25 51°22.5 3°8.112 7.8 212 8.4 101470 79
2002-03-12 08:23:30 51°22.504 3°8.14 7.9 211 8.4 101470 79
2002-03-12 08:23:35 51°22.508 3°8.166 7.6 213 8.4 101470 79
2002-03-12 08:23:40 51°22.513 3°8.194 8.2 213 8.4 101470 79
2002-03-12 08:23:45 51°22.518 3°8.222 8 211 8.4 101470 79
2002-03-12 08:23:50 51°22.522 3°8.25 8 214 8.5 101460 79
2002-03-12 08:23:55 51°22.527 3°8.277 7.5 213 8.5 101460 79
2002-03-12 08:24:00 51°22.531 3°8.305 7.7 213 8.4 101470 79
2002-03-12 08:24:05 51°22.535 3°8.332 7.3 216 8.4 101470 79
2002-03-12 08:24:10 51°22.54 3°8.359 7.8 212 8.5 101470 79
2002-03-12 08:24:15 51°22.543 3°8.388 8 214 8.5 101470 79